Baker, MT

6:56 PM MDT on March 28, 2017 (GMT -0600)
Baker Municipal

Weather History for KBHK - August, 2012

Change the Weather History Date:

Wednesday, August 15, 2012

  Actual Average Record
Temperature  
Mean Temperature 60 °F -  
Max Temperature 71 °F 86 °F 102 °F (2003)
Min Temperature 48 °F 66 °F 45 °F (2002)
Degree Days  
Heating Degree Days 6    
Growing Degree Days 10 (Base 50)    
Moisture  
Dew Point 50 °F    
Average Humidity 71    
Maximum Humidity 90    
Minimum Humidity 45    
Precipitation  
Precipitation 0.02 in - - ()
Sea Level Pressure  
Sea Level Pressure 29.98 in    
Wind  
Wind Speed 17 mph (NW)    
Max Wind Speed 26 mph    
Max Gust Speed 33 mph    
Visibility 10 miles    
Events Rain    
Averages and records for this station are not official NWS values.
T = Trace of Precipitation, MM = Missing Value Source: NWS Daily Summary

Daily Weather History Graph

Daily Weather History Graph

Search for Another Location

Airport or City:

Trip Planner

Search our weather history database for the weather conditions in past years. The results will help you decide how hot, cold, wet, or windy it might be!

Date:

Astronomy

Aug. 15, 2012 Rise Set
Actual Time 5:56 AM MDT 8:05 PM MDT
Civil Twilight 5:23 AM MDT 8:38 PM MDT
Nautical Twilight 4:42 AM MDT 9:18 PM MDT
Astronomical Twilight 3:57 AM MDT 10:03 PM MDT
Moon 3:52 AM MDT (8/15) 6:41 PM MDT (8/15)
Length of Visible Light 15h 14m
Length of Day
14h 08m
Waning Crescent, 4% of the Moon is Illuminated
Aug 15
Waning Crescent
Aug 17
New
Aug 24
First Quarter
Aug 31
Full
Sep 8
Last Quarter

Hourly Weather History & Observations

Time (MDT) Temp. Dew Point Humidity Pressure Visibility Wind Dir Wind Speed Gust Speed Precip Events Conditions
12:51 AM 71.1 °F 48.9 °F 45% 29.62 in 10.0 mi South 12.7 mph - N/A   Clear
1:51 AM 71.1 °F 48.9 °F 45% 29.61 in 10.0 mi South 15.0 mph - N/A   Clear
2:51 AM 69.1 °F 50.0 °F 51% 29.67 in 10.0 mi NW 15.0 mph 21.9 mph N/A   Clear
3:51 AM 62.1 °F 55.0 °F 78% 29.72 in 10.0 mi North 15.0 mph 24.2 mph N/A   Partly Cloudy
4:51 AM 61.0 °F 54.0 °F 78% 29.78 in 10.0 mi NW 17.3 mph 25.3 mph N/A   Clear
5:13 AM 60.8 °F 55.4 °F 82% 29.86 in 10.0 mi NNW 18.4 mph 26.5 mph N/A   Mostly Cloudy
5:51 AM 60.1 °F 54.0 °F 80% 29.81 in 10.0 mi NNW 19.6 mph 29.9 mph N/A   Overcast
6:51 AM 59.0 °F 51.1 °F 75% 29.85 in 10.0 mi NNW 20.7 mph 26.5 mph N/A   Overcast
7:51 AM 59.0 °F 51.1 °F 75% 29.89 in 10.0 mi NW 19.6 mph 27.6 mph N/A   Overcast
8:51 AM 57.9 °F 51.1 °F 78% 29.94 in 10.0 mi NW 24.2 mph 32.2 mph N/A   Overcast
9:51 AM 59.0 °F 50.0 °F 72% 29.97 in 10.0 mi NW 18.4 mph 27.6 mph N/A   Overcast
10:35 AM 59.0 °F 51.8 °F 77% 30.02 in 10.0 mi WNW 16.1 mph 25.3 mph 0.00 in Rain Light Rain
10:51 AM 59.0 °F 52.0 °F 78% 30.00 in 10.0 mi WNW 16.1 mph 26.5 mph 0.00 in Rain Light Rain
11:51 AM 55.9 °F 53.1 °F 90% 30.01 in 5.0 mi NW 18.4 mph 32.2 mph 0.01 in Rain Light Rain
12:08 PM 57.2 °F 53.6 °F 88% 30.05 in 10.0 mi NW 18.4 mph 28.8 mph 0.00 in Rain Light Rain
12:28 PM 57.2 °F 53.6 °F 88% 30.06 in 10.0 mi NW 25.3 mph 33.4 mph 0.00 in   Overcast
12:51 PM 59.0 °F 53.1 °F 81% 30.03 in 10.0 mi NW 18.4 mph 29.9 mph 0.00 in   Mostly Cloudy
1:05 PM 60.8 °F 51.8 °F 72% 30.06 in 10.0 mi NW 21.9 mph 28.8 mph N/A   Mostly Cloudy
1:35 PM 60.8 °F 50.0 °F 68% 30.07 in 10.0 mi NW 24.2 mph 28.8 mph 0.00 in   Overcast
1:51 PM 62.1 °F 48.9 °F 62% 30.03 in 10.0 mi NW 24.2 mph 33.4 mph 0.00 in   Overcast
2:51 PM 64.9 °F 48.0 °F 54% 30.04 in 10.0 mi NNW 26.5 mph 31.1 mph N/A   Mostly Cloudy
3:51 PM 61.0 °F 48.9 °F 64% 30.08 in 10.0 mi NNW 19.6 mph 28.8 mph N/A   Overcast
4:51 PM 63.0 °F 48.0 °F 58% 30.09 in 10.0 mi NNW 20.7 mph 26.5 mph 0.00 in   Scattered Clouds
5:51 PM 59.0 °F 48.9 °F 69% 30.11 in 9.0 mi NW 23.0 mph 27.6 mph 0.01 in Rain Light Rain
6:51 PM 61.0 °F 46.9 °F 60% 30.11 in 10.0 mi NW 17.3 mph - 0.00 in   Scattered Clouds
8:51 PM 55.0 °F 43.0 °F 64% 30.17 in 10.0 mi North 10.4 mph - N/A   Clear
9:51 PM 52.0 °F 43.0 °F 71% 30.19 in 10.0 mi WNW 5.8 mph - N/A   Clear
10:51 PM 48.9 °F 41.0 °F 74% 30.21 in 10.0 mi West 5.8 mph - N/A   Clear
11:51 PM 48.0 °F 41.0 °F 77% 30.23 in 10.0 mi West 3.5 mph - N/A   Clear